{"data":{"norad_id":62101,"epoch":"2026-09-21T04:36:31.855104Z","epoch_age_seconds":122306,"freshness":"FRESH","line1":"1 62101U 24220P   26264.19203536  .00005499  00000+0  20915-3 0  9995","line2":"2 62101  42.9995 181.1967 0001510 259.3556 100.7125 15.27590713102925","mean_motion":15.27590713,"eccentricity":0.000151,"inclination_deg":42.9995,"raan_deg":181.1967,"arg_perigee_deg":259.3556,"mean_anomaly_deg":100.7125,"bstar":0.00020915,"rev_number":10292,"period_min":94.266087620552,"perigee_km":481.98098339448,"apogee_km":484.05305190781,"semimajor_km":6861.1540176511,"source":"CELESTRAK","updated_at":"2026-09-22T09:00:49.498802Z"}}